COSMOS 1275 DEB, 42140

Orbit data source: Space-Track

COSMOS 1275 DEB, 42140 is space debris in LEO originally from a launch on Thu, 04 Jun 1981 UTC launched from the Plesetsk Missile And Space Complex (PKMTR). Debris objects in space refer to the collection of defunct objects orbiting the Earth. Examples of debris include non-operational satellites, rocket bodies, and fragments generated from explosions, collisions, or faulty payload assembly.

Loading next visibility...
Identifier
42140, 1981-053RC
Orbit
LEO
Country
Flag of CISCIS
Related business
Manufacturer
Unknown
Mission
Spacecraft
Bus & Motor
Unknown
Mass
Unknown
Launch date (UTC)
1981-06-04 (45 years ago)
Launch vehicle
Unknown
Launch site
Plesetsk Missile And Space Complex (PKMTR)
Object type
Payload
Rocket body
Debris
Shape & HBR
Unknown shape, 0.1 m
Radar Cross Section
Small (<0.1 m²)

Expand to show TLE details & history
Last TLE update: 2 days ago

TLE from 2 days ago
0 COSMOS 1275 DEB
1 42140U 81053RC  26036.18864265  .00000752  00000-0  10282-2 0  9994
2 42140  83.1383 214.6626 0197925 190.0300 169.6869 13.49979572567719
Epoch: 2026-02-05T04:31Z
TLE epoch observation values (Epoch: 2026-02-05T04:31:38.724Z)
Latitude
-0.00006°
Longitude
11.40679°
Altitude
1,220.403 km
Speed
7.173 km/s
True Right ascension
14h 18m 39s
True Declination
0° 00' 00"
Sunlit
Object was in daylight at epoch
Visualization orbit readout
Latitude
Unknown
Longitude
Unknown
Altitude
Unknown
Speed
Unknown
Apparent Right ascension
Unknown
Apparent Declination
Unknown
Sunlit
N/A
Visualization observer readout
Local Sidereal Time
19:16:57
Azimuth
Unknown
Elevation
Unknown
Doppler factor
Unknown
Orbital elements
Apogee altitude
1,216.916 km
Perigee altitude
922.101 km
Semi-major axis
7,447.645 km
Eccentricity
0.01979
Inclination
83.1383°
RAAN
214.6626°
Arg. of periapsis
190.03°
True anomaly
170.08328°
Mean anomaly
169.6869°
Eccentric anomaly
169.88604°
Mean motion
3.37687 °/min
Orbital period
106.61 mins
BSTAR
0.0010282
Loading maneuver chart data...
Computing Atmospheric mass density...
Loading historical data...
Loading historical data...
Loading historical data...
Loading historical data...
Loading historical data...
Loading historical data...
Loading historical data...

Documentation

Showing up to 5 results
|